Date,TemperatureHighF,TemperatureAvgF,TemperatureLowF,DewpointHighF,DewpointAvgF,DewpointLowF,HumidityHigh,HumidityAvg,HumidityLow,PressureMaxIn,PressureMinIn,WindSpeedMaxMPH,WindSpeedAvgMPH,GustSpeedMaxMPH,PrecipitationSumIn
2013-1-1,31,21,11,24,18,11,99,89,64,29.91,29.76,7,1,12,0.00
2013-1-2,12,10,10,11,10,10,98,98,98,29.92,29.84,2,0,3,0.00
2013-1-3,10,6,0,10,10,10,98,63,98,30.02,29.83,0,0,0,0.00
2013-1-4,37,21,0,33,22,10,98,62,76,30.02,29.69,22,6,22,0.00
2013-1-5,40,31,21,39,30,20,99,95,83,29.91,29.66,17,6,17,0.01
2013-1-6,36,29,18,36,26,16,99,88,72,29.99,29.63,21,9,21,0.01
2013-1-7,43,29,18,32,25,15,94,84,62,30.00,29.77,21,7,21,0.00
2013-1-8,51,36,26,39,32,25,94,85,59,29.83,29.73,16,6,16,0.00
2013-1-9,54,42,29,43,36,28,94,82,57,30.12,29.74,24,6,24,0.00
2013-1-10,54,40,29,52,37,27,94,89,76,30.10,29.43,17,9,17,0.17
2013-1-11,64,54,49,59,52,47,94,92,83,29.49,29.36,24,14,24,0.08
2013-1-12,62,47,31,56,44,-28,96,90,4,29.58,29.42,19,7,19,0.54
2013-1-13,31,23,16,30,22,15,97,96,96,29.94,29.48,0,0,0,0.00
2013-1-14,31,20,14,24,17,14,97,89,71,30.08,29.93,0,0,0,0.00
2013-1-15,33,23,14,27,21,14,97,92,77,30.04,29.73,0,0,0,0.00
2013-1-16,40,30,21,32,26,20,97,86,62,29.75,29.59,26,6,26,0.00
2013-1-17,42,33,23,35,28,21,97,83,54,30.07,29.70,15,4,15,0.00
2013-1-18,47,34,21,39,28,20,97,81,58,30.08,29.70,33,12,33,0.00
2013-1-19,57,44,37,46,38,33,91,78,61,29.71,29.48,33,19,33,0.00
2013-1-20,41,24,18,33,18,11,97,77,55,29.95,29.67,25,8,25,0.00
2013-1-21,20,14,7,18,6,-1,97,70,48,29.97,29.85,22,13,22,0.00
2013-1-22,19,11,4,4,1,-1,84,66,45,30.05,29.96,19,8,19,0.00
2013-1-23,39,24,13,25,13,0,76,63,53,29.98,29.72,19,8,19,0.00
2013-1-24,29,19,9,13,8,1,82,61,49,30.22,29.93,17,8,17,0.00
2013-1-25,40,28,21,29,19,6,84,70,47,29.93,29.66,21,7,21,0.01
2013-1-26,42,26,15,24,17,11,87,68,44,30.01,29.80,12,4,15,0.00
2013-1-27,46,32,22,43,30,19,97,91,80,29.96,29.57,18,9,18,0.11
2013-1-28,63,55,39,62,54,38,96,96,96,29.58,29.47,24,12,24,0.02
2013-1-29,67,60,42,64,59,41,96,96,96,29.48,29.06,29,16,29,0.79
2013-1-30,59,39,24,54,38,20,97,95,83,29.42,28.95,38,19,38,0.28
2013-1-31,28,20,7,24,16,2,97,85,68,29.91,29.42,34,18,34,0.04
2013-2-1,23,14,5,20,8,2,97,76,59,30.06,29.80,26,14,26,0.00
2013-2-2,33,24,18,30,22,14,97,91,83,29.81,29.65,21,9,21,0.00
2013-2-3,34,25,18,27,21,16,97,85,58,29.74,29.60,18,6,18,0.00
2013-2-4,56,34,24,44,29,22,97,84,61,29.65,29.39,21,7,21,0.00
2013-2-5,49,34,25,39,32,24,97,92,74,29.71,29.46,25,8,25,0.00
2013-2-6,51,37,24,39,33,23,97,86,59,29.85,29.71,14,4,14,0.00
2013-2-7,50,39,32,47,37,31,97,93,73,29.72,29.46,16,5,17,0.31
2013-2-8,37,31,28,36,30,27,97,96,88,30.00,29.60,17,6,18,0.01
2013-2-9,43,34,30,37,32,28,97,91,74,29.99,29.67,13,7,13,0.00
2013-2-10,58,44,15,56,43,15,97,96,87,29.69,29.21,28,15,28,0.61
2013-2-11,45,38,31,43,32,28,97,80,65,29.74,29.29,37,21,37,0.06
2013-2-12,42,33,26,35,30,25,97,91,74,29.76,29.55,13,3,13,0.00
2013-2-13,53,38,28,41,33,26,97,83,53,29.56,29.38,21,6,21,0.00
2013-2-14,51,40,33,43,36,32,97,87,68,29.64,29.38,25,9,25,0.00
2013-2-15,41,32,23,34,25,18,97,77,46,29.83,29.64,14,8,14,0.00
2013-2-16,34,24,17,20,17,13,91,74,50,29.84,29.75,21,8,21,0.00
2013-2-17,42,27,12,27,19,10,93,74,52,29.84,29.59,19,7,19,0.00
2013-2-18,60,43,30,52,39,26,97,87,73,29.59,29.14,45,18,45,0.63
2013-2-19,30,24,19,29,20,11,97,82,72,29.86,29.39,33,7,33,0.15
2013-2-20,28,20,9,20,13,6,97,77,57,30.02,29.85,13,6,14,0.00
2013-2-21,33,24,17,31,23,16,97,94,88,29.95,29.46,30,13,30,0.00
2013-2-22,127,32,26,36,30,25,97,95,87,29.64,29.41,27,9,27,0.11
2013-2-23,34,26,19,28,24,18,97,90,73,29.64,29.58,16,8,16,0.00
2013-2-24,45,30,17,34,25,16,97,85,63,29.76,29.62,13,2,13,0.00
2013-2-25,46,35,24,39,32,24,97,90,72,29.73,29.38,23,10,23,0.00
2013-2-26,43,34,26,38,33,25,97,96,93,29.39,29.00,24,10,24,0.94
2013-2-27,38,33,31,35,32,-25,96,96,7,29.41,29.17,23,9,23,0.05
2013-2-28,38,33,32,36,32,31,96,96,94,29.67,29.40,10,4,13,0.01
2013-3-1,34,30,26,33,29,25,96,96,96,29.78,29.64,11,3,13,0.05
2013-3-2,37,28,21,31,24,17,97,84,60,29.82,29.75,13,6,16,0.00
2013-3-3,44,28,17,26,20,16,97,75,40,29.80,29.68,10,2,10,0.00
2013-3-4,37,33,28,34,30,25,97,88,78,29.71,29.48,24,12,24,0.00
2013-3-5,38,32,29,37,32,27,97,96,91,29.62,29.42,22,8,22,0.00
2013-3-6,35,30,27,31,28,26,97,94,81,29.95,29.62,21,10,21,0.04
2013-3-7,38,32,27,34,29,26,97,90,76,30.03,29.94,9,3,9,0.01
2013-3-8,50,38,25,42,34,24,97,85,68,30.07,29.86,16,6,17,0.00
2013-3-9,58,46,38,48,41,35,97,83,69,29.86,29.43,17,10,19,0.01
2013-3-10,63,53,49,60,50,43,97,90,74,29.44,29.25,19,9,19,0.37
2013-3-11,50,38,33,49,36,32,96,96,96,29.54,29.25,26,17,26,0.02
2013-3-12,48,35,28,39,31,25,97,88,66,29.75,29.53,32,16,32,0.01
2013-3-13,41,30,24,27,24,19,97,79,54,29.99,29.74,18,10,19,0.00
2013-3-14,46,35,22,35,29,21,97,82,60,29.99,29.72,20,6,20,0.00
2013-3-15,62,44,29,51,40,28,97,88,64,29.73,29.27,10,4,11,0.00
2013-3-16,52,39,34,45,38,33,97,95,89,29.70,29.23,12,4,17,0.00
2013-3-17,41,35,31,37,32,30,97,90,74,29.75,29.48,23,13,23,0.01
2013-3-18,46,36,28,43,34,25,97,94,72,29.58,29.27,25,13,25,0.05
2013-3-19,47,34,24,26,23,18,90,66,37,29.77,29.55,35,15,35,0.00
2013-3-20,34,28,21,26,16,9,89,63,42,29.81,29.69,29,13,29,0.00
2013-3-21,41,28,16,18,14,10,86,57,36,29.72,29.61,11,4,11,0.00
2013-3-22,50,34,18,28,22,16,97,64,35,29.69,29.60,12,3,12,0.00
2013-3-23,56,43,34,35,29,26,76,58,40,29.69,29.51,16,7,16,0.00
2013-3-24,37,32,29,32,30,28,97,94,74,29.54,29.15,25,7,25,0.01
2013-3-25,39,32,27,35,30,26,97,95,82,29.73,29.31,0,0,1,0.00
2013-3-26,45,36,31,35,31,29,97,84,64,29.91,29.73,21,4,21,0.00
2013-3-27,50,38,28,38,29,25,94,72,46,29.99,29.90,19,6,19,0.00
2013-3-28,53,39,24,38,31,-14,97,76,47,30.00,29.89,246,5,246,0.00
2013-3-29,62,46,34,46,38,32,97,77,46,29.91,29.81,12,3,12,0.00
2013-3-30,57,48,34,50,43,31,97,84,48,29.84,29.52,82,8,82,0.00
2013-3-31,62,52,11,54,46,-41,97,83,7,29.55,29.42,71,11,71,0.00
2013-4-1,50,41,33,36,27,19,82,59,36,29.83,29.54,22,9,22,0.00
2013-4-2,52,39,26,28,22,16,85,54,27,29.94,29.83,15,5,15,0.00
2013-4-3,57,41,28,30,24,20,87,54,30,30.02,29.90,18,6,18,0.00
2013-4-4,66,47,28,36,28,23,86,52,25,29.90,29.62,12,3,12,0.00
2013-4-5,68,52,39,42,35,24,90,55,32,29.78,29.63,20,5,20,0.00
2013-4-6,78,59,41,52,41,27,66,52,35,29.70,29.31,34,18,35,0.11
2013-4-7,79,64,48,61,50,47,97,64,38,29.56,29.37,28,5,28,0.00
2013-4-8,80,66,58,74,63,55,97,89,72,29.52,29.33,33,11,33,0.06
2013-4-9,78,69,61,71,66,60,97,90,73,29.51,29.44,38,12,38,0.05
2013-4-10,77,61,46,76,60,43,97,96,96,29.47,29.27,23,9,23,1.05
2013-4-11,61,48,40,60,47,37,97,96,88,29.40,29.21,28,14,28,0.22
2013-4-12,45,41,37,42,39,35,97,92,79,29.57,29.29,29,18,29,0.00
2013-4-13,58,48,39,44,40,34,97,76,54,29.65,29.56,29,11,29,0.00
2013-4-14,80,63,46,62,53,43,97,73,49,29.58,29.28,24,11,27,0.07
2013-4-15,66,58,48,65,57,47,97,95,77,29.56,29.36,22,8,22,0.18
2013-4-16,67,47,39,65,46,36,97,96,96,29.79,29.44,31,6,31,1.17
2013-4-17,79,56,44,78,55,40,97,96,92,29.79,29.34,21,10,21,0.01
2013-4-18,76,60,42,74,59,40,96,96,96,29.34,29.16,32,14,32,2.57
2013-4-19,46,40,36,41,38,34,97,90,75,29.65,29.28,32,21,32,0.04
2013-4-20,55,43,33,39,35,32,97,76,46,29.99,29.64,13,5,13,0.00
2013-4-21,69,48,37,51,39,33,91,71,52,30.08,29.90,21,10,21,0.00
2013-4-22,73,58,38,54,46,37,97,67,40,29.91,29.64,17,5,17,0.00
2013-4-23,61,53,40,60,52,39,97,94,81,29.68,29.45,19,6,19,0.44
2013-4-24,57,43,34,45,39,33,97,86,58,29.83,29.55,21,8,21,0.14
2013-4-25,62,50,40,43,39,34,94,68,43,29.94,29.78,21,10,21,0.00
2013-4-26,67,55,44,55,47,36,93,74,56,29.99,29.89,20,8,20,0.00
2013-4-27,61,53,45,56,51,44,97,93,73,29.91,29.55,14,5,14,0.32
2013-4-28,65,56,53,63,55,52,96,96,96,29.55,29.47,15,3,15,0.06
2013-4-29,83,63,45,69,59,44,97,87,68,29.57,29.41,19,8,20,0.00
2013-4-30,89,73,59,73,66,58,97,79,52,29.57,29.42,19,9,19,0.00
2013-5-1,94,74,56,70,64,55,97,74,44,29.72,29.57,15,4,15,0.00
2013-5-2,86,68,52,73,64,51,97,88,62,29.74,29.62,22,3,22,0.52
2013-5-3,72,59,45,70,58,44,97,96,88,29.69,29.40,21,7,21,0.19
2013-5-4,61,56,51,60,55,50,96,96,96,29.63,29.45,15,4,15,0.33
2013-5-5,70,58,51,66,57,50,97,95,78,29.62,29.51,17,4,17,0.25
2013-5-6,70,62,53,66,60,51,97,93,81,29.60,29.53,15,2,15,0.01
2013-5-7,84,69,55,66,59,54,97,75,40,29.65,29.56,9,1,9,0.00
2013-5-8,90,70,54,72,60,53,97,74,36,29.65,29.57,10,2,10,0.00
2013-5-9,70,63,60,69,62,59,96,96,96,29.63,29.44,17,3,17,0.78
2013-5-10,68,60,52,68,59,50,97,96,92,29.59,29.44,13,4,13,0.00
2013-5-11,70,57,48,63,49,37,97,77,40,29.73,29.55,18,6,18,0.00
2013-5-12,64,53,38,41,38,31,88,59,34,29.80,29.72,17,5,17,0.00
2013-5-13,77,58,40,48,44,39,97,62,32,29.83,29.67,12,4,14,0.00
2013-5-14,99,73,54,74,61,46,86,67,49,29.67,29.35,25,10,25,0.00
2013-5-15,91,80,69,80,68,60,97,68,54,29.50,29.40,22,10,22,0.02
2013-5-16,85,74,64,75,69,62,97,85,57,29.57,29.43,17,4,17,0.07
2013-5-17,84,72,61,76,68,60,97,90,68,29.61,29.54,11,3,14,0.00
2013-5-18,86,72,62,76,69,60,97,89,67,29.64,29.52,9,2,9,0.00
2013-5-19,92,78,64,84,75,60,97,89,72,29.55,29.36,15,5,20,0.00
2013-5-20,93,78,62,80,73,57,97,85,62,29.51,29.34,29,9,29,0.91
2013-5-21,86,73,53,79,71,52,97,92,77,29.47,29.30,18,9,21,0.28
2013-5-22,79,69,63,71,66,62,97,89,65,29.44,29.27,17,7,21,0.04
2013-5-23,65,60,49,64,58,48,97,96,91,29.86,29.43,10,4,11,0.02
2013-5-24,78,57,42,54,47,41,97,73,35,30.02,29.86,8,2,9,0.00
2013-5-25,57,51,48,54,47,44,96,85,73,29.99,29.86,6,2,6,0.00
2013-5-26,68,58,52,66,57,51,96,96,96,29.90,29.65,9,3,9,0.69
2013-5-27,83,66,60,80,65,59,97,95,85,29.70,29.40,17,3,17,0.86
2013-5-28,86,73,64,82,71,62,97,95,86,29.53,29.40,22,8,22,0.02
2013-5-29,75,69,66,74,68,64,96,96,96,29.58,29.51,12,3,12,0.00
2013-5-31,80,74,56,79,73,55,96,96,96,29.53,29.37,24,7,29,1.04
2013-6-1,76,68,60,75,67,59,96,96,96,29.47,29.28,17,7,17,0.46
2013-6-2,72,63,56,67,62,55,97,96,92,29.65,29.44,7,2,9,0.00
2013-6-3,75,62,51,60,55,50,97,81,55,29.74,29.63,6,1,8,0.00
2013-6-4,79,65,52,66,59,51,97,82,60,29.74,29.64,8,2,9,0.00
2013-6-5,90,73,57,72,65,56,97,79,47,29.66,29.46,4,1,7,0.00
2013-6-6,87,74,64,72,68,60,97,83,56,29.48,29.41,6,1,10,0.00
2013-6-7,86,69,57,69,62,55,97,81,53,29.53,29.46,5,1,10,0.00
2013-6-8,88,72,53,69,62,52,97,74,47,29.59,29.52,7,2,8,0.05
2013-6-9,86,72,64,73,67,62,97,85,59,29.59,29.40,15,3,15,0.00
2013-6-10,85,72,63,74,68,62,97,89,66,29.52,29.37,9,3,12,0.01
2013-6-11,92,77,60,84,72,59,97,88,64,29.58,29.44,14,4,14,0.00
2013-6-12,105,86,72,92,80,71,96,83,63,29.54,29.26,23,8,23,0.00
2013-6-13,94,80,68,82,69,62,97,73,45,29.61,29.29,11,4,13,0.02
2013-6-14,89,73,58,70,64,56,97,76,44,29.73,29.57,7,1,8,0.00
2013-6-15,86,74,68,84,70,63,97,88,70,29.70,29.51,23,2,23,1.19
2013-6-16,87,77,60,85,76,59,97,95,88,29.66,29.53,18,3,18,0.04
2013-6-17,95,78,68,86,73,66,97,87,56,29.58,29.49,10,1,14,0.00
2013-6-18,93,74,64,82,71,62,97,90,59,29.61,29.50,18,2,18,1.31
2013-6-19,93,75,59,82,69,58,97,85,52,29.70,29.61,7,2,8,0.00
2013-6-20,98,81,66,82,73,65,97,80,53,29.76,29.68,7,2,9,0.00
2013-6-21,101,80,71,82,76,70,97,89,62,29.74,29.58,11,3,15,0.11
2013-6-22,93,76,68,86,75,66,97,94,79,29.73,29.61,12,4,14,0.24
2013-6-23,86,76,68,82,74,67,97,94,82,29.68,29.57,15,4,15,0.01
2013-6-24,96,80,68,87,76,66,97,89,73,29.73,29.53,9,2,11,0.00
2013-6-25,95,79,70,87,77,68,97,93,75,29.61,29.44,12,4,14,0.58
2013-6-26,87,76,69,86,75,68,96,96,96,29.53,29.33,12,2,12,0.41
2013-6-27,98,83,74,89,79,73,97,89,61,29.47,29.36,8,2,11,0.15
2013-6-28,91,81,72,80,73,65,97,79,52,29.43,29.27,10,3,14,0.00
2013-6-29,82,71,65,77,69,63,97,95,80,29.35,29.23,5,1,12,0.93
2013-6-30,80,69,62,76,66,8,97,92,7,29.54,29.35,10,3,13,0.08
2013-7-1,68,65,63,62,61,59,96,87,79,29.54,29.52,4,1,7,0.01
2013-7-2,72,67,63,71,65,62,97,95,82,29.65,29.57,6,2,11,0.06
2013-7-3,87,72,62,73,66,61,97,83,51,29.70,29.62,8,1,8,0.02
2013-7-4,88,75,62,75,69,60,96,82,59,29.73,29.64,8,1,8,0.00
2013-7-5,89,77,65,81,73,63,97,88,68,29.72,29.62,5,1,98,0.00
2013-7-6,91,76,68,83,73,67,97,92,67,29.69,29.60,7,1,7,0.00
2013-7-7,95,80,66,85,76,65,97,88,69,29.67,29.59,9,2,11,0.00
2013-7-8,92,80,74,88,79,72,97,95,86,29.72,29.60,10,2,12,0.00
2013-7-9,97,85,76,89,82,75,97,92,74,29.66,29.53,6,1,8,0.00
2013-7-10,94,81,69,89,79,68,97,92,70,29.65,29.47,10,2,14,0.63
2013-7-11,87,76,64,74,69,63,97,82,61,29.69,29.61,8,2,9,0.00
2013-7-12,90,74,59,73,65,58,97,77,46,29.76,29.66,6,1,9,0.00
2013-7-13,88,75,61,78,70,60,97,86,64,29.75,29.66,11,2,11,0.01
2013-7-14,94,80,67,84,76,62,97,88,66,29.79,29.69,8,2,9,0.00
2013-7-15,96,82,72,89,80,71,97,92,74,29.87,29.77,5,1,8,0.00
2013-7-16,99,85,72,87,80,71,97,86,63,29.93,29.85,7,2,9,0.00
2013-7-17,100,87,73,88,81,72,97,84,60,29.95,29.81,5,1,6,0.00
2013-7-18,100,87,75,90,82,74,97,87,66,29.83,29.62,9,2,9,0.00
2013-7-19,98,87,75,89,83,74,97,89,71,29.64,29.46,12,5,14,0.00
2013-7-20,96,83,72,90,80,71,97,89,66,29.55,29.44,11,3,11,0.00
2013-7-21,83,75,68,82,74,62,96,96,96,29.58,29.46,6,1,8,0.09
2013-7-22,92,80,68,85,76,60,97,89,70,29.48,29.39,8,2,8,0.39
2013-7-23,93,79,68,85,74,67,96,87,65,29.55,29.38,9,2,11,0.14
2013-7-24,83,70,61,68,64,60,97,81,57,29.65,29.54,9,3,10,0.00
2013-7-25,86,76,54,72,67,53,97,77,59,29.74,29.66,7,1,7,0.00
2013-7-26,77,70,62,74,68,60,97,95,78,29.69,29.52,11,3,11,0.18
2013-7-27,79,67,57,72,62,56,97,85,61,29.61,29.54,11,3,14,0.01
2013-7-28,80,66,53,67,60,52,97,81,58,29.67,29.58,13,4,15,0.00
2013-7-29,85,70,56,71,63,55,97,83,57,29.78,29.67,6,1,8,0.00
2013-7-30,74,68,66,68,67,65,97,96,94,29.77,29.65,6,2,100,0.50
2013-7-31,84,72,65,82,71,63,96,96,96,29.67,29.59,6,1,8,0.06
2013-8-1,90,76,65,81,70,63,97,84,59,29.67,29.59,10,2,10,0.00
2013-8-2,87,74,66,86,73,64,97,96,93,29.61,29.53,53,4,53,0.00
2013-8-3,91,78,68,82,73,66,97,86,59,29.73,29.55,6,1,7,0.01
2013-8-4,86,73,59,73,66,58,97,82,58,29.80,29.70,9,1,9,0.05
2013-8-5,84,72,60,75,68,59,97,89,70,29.72,29.50,12,3,15,0.00
2013-8-6,92,76,68,85,75,67,97,94,76,29.55,29.47,9,2,9,0.00
2013-8-7,88,76,70,87,75,69,97,96,96,29.54,29.44,8,2,8,0.00
2013-8-8,81,75,69,80,74,68,96,96,96,29.59,29.51,5,1,9,0.00
2013-8-9,88,75,63,80,70,62,97,86,58,29.68,29.57,18,1,24,0.05
2013-8-10,92,79,69,80,72,68,97,82,57,29.74,29.57,9,1,9,0.19
2013-8-11,91,76,61,76,69,60,97,82,58,29.75,29.66,5,1,99,0.00
2013-8-12,86,75,66,83,73,14,97,94,7,29.69,29.51,28,2,28,0.04
2013-8-13,84,70,56,74,66,55,97,87,59,29.76,29.53,9,2,9,0.01
2013-8-14,80,65,52,67,59,50,97,82,59,29.84,29.75,8,1,8,0.00
2013-8-15,80,65,53,68,59,-14,97,83,53,29.81,29.70,9,1,9,0.00
2013-8-16,83,70,61,69,64,60,97,83,58,29.78,29.73,10,2,11,0.00
2013-8-17,87,70,-23,72,65,-32,97,85,58,29.83,29.73,8,1,8,0.00
2013-8-18,90,73,0,76,68,59,97,84,60,29.91,29.71,8,1,9,0.00
2013-8-19,91,76,62,80,71,61,97,85,62,29.90,29.80,12,1,12,0.00
2013-8-20,95,77,64,83,72,63,96,86,63,29.89,29.80,9,1,9,0.00
2013-8-21,95,78,67,83,74,21,97,88,65,29.88,29.77,13,2,13,0.00
2013-8-22,96,78,68,87,75,67,97,93,73,29.97,29.80,10,2,12,0.00
2013-8-23,92,78,67,82,74,66,97,88,65,30.01,29.94,8,2,9,0.00
2013-8-24,94,78,63,81,73,62,97,84,60,30.11,30.00,8,2,8,0.00
2013-8-25,94,79,65,79,73,64,97,83,59,30.15,30.05,12,2,12,0.00
2013-8-26,95,82,70,88,78,69,97,90,68,30.09,29.92,9,3,10,0.00
2013-8-27,96,84,74,87,80,73,97,90,69,29.94,29.83,12,4,14,0.00
2013-8-28,98,85,73,87,80,72,97,86,64,29.88,29.81,10,4,12,0.00
2013-8-29,92,79,71,89,78,70,97,95,82,29.94,29.85,6,2,6,0.00
2013-8-30,100,84,70,91,80,69,97,89,67,29.86,29.68,13,3,13,0.00
2013-8-31,101,86,74,91,82,72,97,89,69,29.75,29.58,13,3,14,0.00
2013-9-1,89,78,71,85,76,70,97,94,84,29.71,29.64,6,2,8,0.00
2013-9-2,91,77,66,79,72,64,97,84,58,29.84,29.70,5,1,9,0.00
2013-9-3,86,70,59,72,65,58,97,85,59,29.97,29.83,5,1,5,0.00
2013-9-4,91,72,58,75,66,57,97,83,51,30.04,29.94,8,2,8,0.00
2013-9-5,94,77,62,77,70,61,97,82,53,30.08,30.00,6,1,8,0.00
2013-9-6,93,76,62,80,72,61,97,86,62,30.07,29.91,8,2,11,0.00
2013-9-7,93,78,65,80,74,62,97,87,61,29.93,29.79,14,2,14,0.00
2013-9-8,94,80,72,83,76,71,97,91,69,29.86,29.78,4,1,6,0.00
2013-9-9,101,84,72,87,79,71,97,87,58,29.84,29.76,13,3,13,0.00
2013-9-10,122,85,72,100,79,71,97,84,51,29.95,29.83,22,3,22,0.00
2013-9-11,98,86,71,82,78,70,97,79,55,30.00,29.88,15,4,20,0.00
2013-9-12,90,76,64,80,70,59,96,82,47,29.94,29.82,11,3,12,0.12
2013-9-13,78,66,54,64,58,52,97,77,48,30.03,29.93,7,2,11,0.00
2013-9-14,81,62,46,57,52,44,97,74,40,30.06,29.91,8,2,8,0.00
2013-9-15,82,66,9,70,60,7,97,82,55,29.99,29.85,16,3,16,0.02
2013-9-16,71,63,54,66,60,53,97,92,77,30.18,29.98,10,3,11,0.00
2013-9-17,80,64,51,68,59,50,97,85,63,30.17,29.96,9,2,9,0.00
2013-9-18,88,72,64,81,70,37,97,93,32,29.98,29.83,11,3,11,0.01
2013-9-19,97,82,72,85,78,71,97,88,67,29.87,29.70,14,6,14,0.00
2013-9-20,78,70,59,76,69,58,97,96,96,29.79,29.70,8,2,11,0.32
2013-9-21,78,63,53,65,58,52,97,85,55,29.82,29.74,10,2,10,0.00
2013-9-22,80,62,47,62,55,46,97,82,47,29.93,29.81,6,1,7,0.00
2013-9-23,82,63,46,60,54,45,96,76,43,29.95,29.84,10,2,10,0.00
2013-9-24,87,65,50,70,61,48,97,87,57,29.88,29.72,9,1,10,0.00
2013-9-25,90,71,57,74,66,56,97,85,57,29.80,29.71,6,1,6,0.00
2013-9-26,101,69,53,81,61,52,97,79,45,29.92,29.79,7,1,8,0.00
2013-9-27,89,69,50,69,60,49,97,77,45,30.02,29.90,8,2,10,0.00
2013-9-28,86,72,58,76,66,57,97,83,58,29.96,29.81,21,4,21,0.00
2013-9-29,82,66,55,70,60,54,97,82,46,29.93,29.84,6,1,8,0.08
2013-9-30,82,62,48,70,59,46,97,90,63,29.88,29.77,11,2,11,0.00
2013-10-1,82,70,63,79,68,62,97,96,88,29.91,29.81,9,3,11,0.00
2013-10-2,84,73,66,82,71,64,97,95,85,29.95,29.86,6,1,8,0.00
2013-10-3,88,74,64,82,72,63,97,93,77,29.86,29.74,17,5,17,0.98
2013-10-4,90,76,-15,83,73,-15,97,91,72,29.86,29.78,12,3,12,0.00
2013-10-5,82,73,60,80,72,59,96,96,96,29.84,29.67,14,2,14,0.05
2013-10-6,70,55,50,59,52,47,97,89,60,29.74,29.66,21,8,21,0.01
2013-10-7,76,56,46,61,52,45,97,88,55,30.00,29.69,11,4,12,0.06
2013-10-8,82,62,47,64,54,46,97,80,47,30.09,30.00,7,1,9,0.00
2013-10-9,83,60,44,63,54,43,97,83,47,30.09,29.98,8,1,10,0.00
2013-10-10,84,66,51,75,61,50,97,86,61,30.01,29.52,6,1,7,0.00
2013-10-11,84,71,58,73,65,57,97,83,60,29.94,29.80,11,2,13,0.00
2013-10-12,79,65,56,78,63,52,97,94,77,30.07,29.84,8,2,9,0.13
2013-10-13,78,60,48,58,48,42,97,69,35,30.25,30.07,6,1,7,0.00
2013-10-14,76,57,42,54,48,41,97,75,40,30.25,29.96,11,2,11,0.00
2013-10-15,67,61,57,66,60,53,97,94,80,29.97,29.73,11,5,12,0.09
2013-10-16,58,51,42,56,50,41,97,95,84,29.88,29.80,13,4,13,0.00
2013-10-17,65,53,46,55,49,45,97,89,59,29.85,29.76,15,4,15,0.02
2013-10-18,61,50,44,53,47,43,97,90,69,29.90,29.78,9,3,10,0.00
2013-10-19,58,48,40,50,44,39,97,84,60,29.84,29.76,21,7,21,0.31
2013-10-20,73,55,39,55,48,38,97,79,51,29.81,29.69,22,8,22,0.00
2013-10-21,56,48,34,52,44,33,97,87,60,29.92,29.75,14,4,15,0.00
2013-10-22,52,40,32,46,39,30,97,95,83,29.92,29.67,8,2,14,0.13
2013-10-23,50,41,33,45,38,32,97,87,65,29.98,29.80,12,4,12,0.00
2013-10-24,50,40,34,38,33,29,96,79,51,30.23,29.96,10,5,14,0.00
2013-10-25,57,40,27,40,34,26,97,78,50,30.34,30.06,15,4,15,0.00
2013-10-26,63,47,36,50,39,33,97,74,48,30.06,29.82,21,8,21,0.00
2013-10-27,67,44,30,43,36,29,97,79,42,29.99,29.88,10,2,10,0.00
2013-10-28,71,48,31,52,38,30,97,73,38,30.16,29.94,6,1,8,0.00
2013-10-29,59,48,37,58,47,36,97,94,80,30.16,29.97,5,1,8,0.05
2013-10-30,71,60,53,69,59,52,96,96,96,29.98,29.72,13,3,14,0.66
2013-10-31,76,60,40,75,59,39,96,96,96,29.72,29.22,19,9,21,1.59
2013-11-1,58,49,44,55,47,43,97,95,83,29.56,29.45,17,10,17,0.00
2013-11-2,56,46,36,49,43,35,97,90,69,30.04,27.88,10,3,13,0.00
2013-11-3,60,44,32,50,40,30,97,84,54,30.17,30.02,8,2,11,0.00
2013-11-4,61,51,44,53,48,42,97,89,71,30.10,30.00,17,6,20,0.00
2013-11-5,60,55,51,59,54,50,97,96,93,30.17,29.88,15,4,15,0.08
2013-11-6,61,49,36,60,48,36,96,96,96,30.09,29.76,18,8,21,0.38
2013-11-7,54,40,30,47,37,28,97,89,61,30.21,30.08,23,6,23,0.00
2013-11-8,56,42,29,46,37,28,97,82,53,30.23,29.93,13,4,16,0.00
2013-11-9,66,53,32,53,46,28,94,78,53,30.08,29.87,25,12,25,0.00
2013-11-10,55,43,34,44,39,33,97,85,58,30.28,30.08,10,3,11,0.00
2013-11-11,53,42,27,53,40,26,97,94,86,30.35,29.98,14,5,14,0.12
2013-11-12,40,28,20,31,25,20,97,89,67,30.59,30.34,11,2,11,0.08
2013-11-13,53,33,21,30,26,-10,97,76,7,30.53,30.14,21,8,21,0.14
2013-11-14,56,42,30,36,31,26,88,68,42,30.15,29.90,34,12,34,0.01
2013-11-15,54,47,40,44,40,34,97,77,65,29.93,29.82,15,7,15,0.00
2013-11-16,65,56,46,64,55,44,97,96,93,29.83,29.50,25,12,26,0.12
2013-11-17,75,62,47,74,60,46,97,93,66,29.78,29.15,58,19,58,1.35
2013-11-18,54,45,35,46,41,34,97,85,57,30.15,29.77,27,12,27,0.00
2013-11-19,50,37,28,38,33,27,97,88,63,30.23,30.10,18,4,18,0.00
2013-11-20,46,39,29,44,37,28,97,93,78,30.13,29.93,31,7,109,0.05
2013-11-21,51,48,45,50,47,44,96,96,96,30.07,29.97,12,3,12,0.31
2013-11-22,49,40,31,48,39,30,96,96,96,30.37,30.04,11,5,14,0.11
2013-11-23,31,25,16,30,22,13,97,89,74,30.57,30.34,16,8,22,0.00
2013-11-24,32,21,11,18,14,10,97,78,47,30.62,30.30,10,2,11,0.00
2013-11-25,45,30,23,37,24,18,89,81,70,30.30,30.02,24,9,24,0.00
2013-11-26,38,30,20,35,27,15,97,89,73,30.05,29.90,21,7,21,0.00
2013-11-27,32,21,14,19,14,11,93,75,52,30.17,30.04,18,7,18,0.00
2013-11-28,42,29,17,31,23,16,97,79,61,30.37,30.08,24,8,24,0.00
2013-11-29,45,31,16,31,25,15,97,82,56,30.48,30.26,13,4,13,0.00
2013-11-30,57,40,30,43,35,29,97,83,58,30.26,29.96,22,5,22,0.00
2013-12-1,57,41,30,46,37,29,97,88,61,29.98,29.80,7,2,7,0.00
2013-12-2,49,41,33,48,40,32,97,96,94,29.81,29.57,11,5,11,0.00
2013-12-3,54,48,41,53,47,40,96,96,96,29.60,29.52,15,4,15,0.00
2013-12-4,62,54,42,61,53,41,96,96,96,29.67,29.39,27,10,27,0.01
2013-12-5,42,28,22,41,25,18,97,91,83,30.14,29.67,24,10,24,0.00
2013-12-6,26,20,12,20,16,9,92,86,79,30.43,30.12,11,6,14,0.00
2013-12-7,29,17,9,18,11,8,97,79,53,30.56,30.36,10,4,11,0.00
2013-12-8,27,23,18,26,21,11,97,94,75,30.36,29.86,23,10,23,0.00
2013-12-9,27,22,15,26,20,12,97,93,82,30.14,29.89,28,12,28,0.00
2013-12-10,32,19,8,23,15,7,97,84,61,30.19,30.02,32,9,32,0.00
2013-12-11,30,19,5,27,15,1,97,85,62,30.49,30.12,18,7,18,0.00
2013-12-12,32,18,2,20,11,-1,93,73,53,30.48,30.11,28,9,28,0.00
2013-12-13,45,30,18,32,26,17,97,86,56,30.11,29.88,18,4,18,0.00
2013-12-14,38,31,24,35,30,23,96,96,96,29.93,29.71,19,4,19,0.01
2013-12-15,25,21,15,24,20,14,97,96,94,30.01,29.93,25,11,25,0.00
2013-12-16,24,23,18,23,22,-2,96,96,32,29.98,29.87,18,4,18,0.00
2013-12-17,35,26,21,34,25,20,97,95,83,30.08,29.94,21,10,21,0.05
2013-12-18,43,30,14,40,26,-28,97,86,7,30.10,29.78,243,11,243,0.06
2013-12-19,50,43,39,49,42,38,97,96,93,29.81,29.65,18,9,20,0.00
2013-12-20,64,48,32,62,47,31,96,96,96,29.73,29.55,19,10,21,0.11
2013-12-21,43,33,31,35,32,30,96,96,96,29.72,29.38,11,3,11,0.83
2013-12-22,36,32,24,35,31,23,96,96,96,30.08,29.44,22,10,22,0.04
2013-12-23,26,18,6,24,17,3,97,95,84,30.40,30.07,23,11,23,0.05
2013-12-24,23,14,3,18,10,1,94,84,71,30.47,30.22,15,8,15,0.00
2013-12-25,32,27,20,31,26,17,97,94,87,30.22,30.05,23,12,23,0.00
2013-12-26,43,33,20,37,30,19,97,91,70,30.23,30.08,19,9,19,0.00
2013-12-27,51,38,12,42,35,7,97,91,69,30.22,30.06,83,8,83,0.14
2013-12-28,58,43,35,47,39,34,97,87,64,30.07,29.77,19,8,19,0.00
2013-12-29,39,28,13,38,27,12,97,96,92,30.10,29.69,20,10,21,0.00
2013-12-30,21,13,3,17,9,2,97,85,67,30.22,30.06,15,5,15,0.00
2013-12-31,36,26,17,28,22,16,97,86,67,30.25,30.04,12,5,12,0.00
2014-1-1,40,26,19,38,25,18,97,96,90,30.05,29.93,11,3,11,0.00
2014-1-2,20,15,8,19,15,7,97,96,94,30.29,29.91,21,8,21,0.00